Waarnemingen

Advertentie
Mijn weer
Arezzo, Italië (16172): temperatuur & dauwpunt: 16.08.2018 01:00:00 - 22.08.2018 01:00:00 (CEST)Arezzo, Italië (16172): windsnelheid: 16.08.2018 01:00:00 - 22.08.2018 01:00:00 (CEST)Arezzo, Italië (16172): windrichting: 16.08.2018 01:00:00 - 22.08.2018 01:00:00 (CEST)Arezzo, Italië (16172): luchtdruk: 16.08.2018 01:00:00 - 22.08.2018 01:00:00 (CEST)Arezzo, Italië (16172): zicht: 16.08.2018 01:00:00 - 22.08.2018 01:00:00 (CEST)
Datum & Tijd tt [°C] td [°C] ff [km/u] ff [kn] dd ppp [hPa] vv [km]
22.08.2018 01:00:00 - - - - - - -
22.08.2018 00:00:00 - - - - - - -
21.08.2018 23:00:00 - - - - - - -
21.08.2018 22:00:00 - - - - - - -
21.08.2018 21:00:00 - - - - - - -
21.08.2018 20:00:00 29,0 11,1 9 5 N 1013,3 16
21.08.2018 19:00:00 - - - - - - -
21.08.2018 18:00:00 - - - - - - -
21.08.2018 17:00:00 32,4 11,6 24 13 ONO 1013,2 16
21.08.2018 16:00:00 - - - - - - -
21.08.2018 15:00:00 - - - - - - -
21.08.2018 14:00:00 31,6 10,9 13 7 O 1013,8 18
21.08.2018 13:00:00 - - - - - - -
21.08.2018 12:00:00 - - - - - - -
21.08.2018 11:00:00 30,4 14,1 0 0 N 1014,9 18
21.08.2018 10:00:00 - - - - - - -
21.08.2018 09:00:00 - - - - - - -
21.08.2018 08:00:00 18,4 17,2 0 0 N 1015,4 15
21.08.2018 07:00:00 - - - - - - -
21.08.2018 06:00:00 - - - - - - -
21.08.2018 05:00:00 - - - - - - -
21.08.2018 04:00:00 - - - - - - -
21.08.2018 03:00:00 - - - - - - -
21.08.2018 02:00:00 - - - - - - -
21.08.2018 01:00:00 - - - - - - -
21.08.2018 00:00:00 - - - - - - -
20.08.2018 23:00:00 - - - - - - -
20.08.2018 22:00:00 - - - - - - -
20.08.2018 21:00:00 - - - - - - -
20.08.2018 20:00:00 23,6 20,3 4 2 ZO 1013,6 17
20.08.2018 19:00:00 - - - - - - -
20.08.2018 18:00:00 - - - - - - -
20.08.2018 17:00:00 25,0 19,2 4 2 Z 1013,5 16
20.08.2018 16:00:00 - - - - - - -
20.08.2018 15:00:00 - - - - - - -
20.08.2018 14:00:00 31,0 15,0 8 4 NW 1013,4 18
20.08.2018 13:00:00 - - - - - - -
20.08.2018 12:00:00 - - - - - - -
20.08.2018 11:00:00 30,2 15,5 11 6 N 1013,8 17
20.08.2018 10:00:00 - - - - - - -
20.08.2018 09:00:00 - - - - - - -
20.08.2018 08:00:00 18,8 16,8 0 0 N 1014,9 16
20.08.2018 07:00:00 - - - - - - -
20.08.2018 06:00:00 - - - - - - -
20.08.2018 05:00:00 - - - - - - -
20.08.2018 04:00:00 - - - - - - -
20.08.2018 03:00:00 - - - - - - -
20.08.2018 02:00:00 - - - - - - -
20.08.2018 01:00:00 - - - - - - -
20.08.2018 00:00:00 - - - - - - -
19.08.2018 23:00:00 - - - - - - -
19.08.2018 22:00:00 - - - - - - -
19.08.2018 21:00:00 - - - - - - -
19.08.2018 20:00:00 24,6 16,3 13 7 OZO 1014,8 17
19.08.2018 19:00:00 - - - - - - -
19.08.2018 18:00:00 - - - - - - -
19.08.2018 17:00:00 31,4 15,0 11 6 NNW 1013,1 17
19.08.2018 16:00:00 - - - - - - -
19.08.2018 15:00:00 - - - - - - -
19.08.2018 14:00:00 32,4 15,4 13 7 NO 1014,7 18
19.08.2018 13:00:00 - - - - - - -
19.08.2018 12:00:00 - - - - - - -
19.08.2018 11:00:00 28,2 16,5 4 2 ONO 1015,7 17
19.08.2018 10:00:00 - - - - - - -
19.08.2018 09:00:00 - - - - - - -
19.08.2018 08:00:00 18,2 16,9 0 0 N 1016,7 16
19.08.2018 07:00:00 - - - - - - -
19.08.2018 06:00:00 - - - - - - -
19.08.2018 05:00:00 - - - - - - -
19.08.2018 04:00:00 - - - - - - -
19.08.2018 03:00:00 - - - - - - -
19.08.2018 02:00:00 - - - - - - -
19.08.2018 01:00:00 - - - - - - -
19.08.2018 00:00:00 - - - - - - -
18.08.2018 23:00:00 - - - - - - -
18.08.2018 22:00:00 - - - - - - -
18.08.2018 21:00:00 - - - - - - -
18.08.2018 20:00:00 26,6 14,4 15 8 Z 1015,2 20
18.08.2018 19:00:00 - - - - - - -
18.08.2018 18:00:00 - - - - - - -
18.08.2018 17:00:00 31,6 13,4 9 5 ONO 1013,8 20
18.08.2018 16:00:00 - - - - - - -
18.08.2018 15:00:00 - - - - - - -
18.08.2018 14:00:00 31,6 12,9 4 2 N 1014,8 20
18.08.2018 13:00:00 - - - - - - -
18.08.2018 12:00:00 - - - - - - -
18.08.2018 11:00:00 27,2 15,2 4 2 N 1015,4 20
18.08.2018 10:00:00 - - - - - - -
18.08.2018 09:00:00 - - - - - - -
18.08.2018 08:00:00 18,2 16,4 0 0 N 1016,1 20
18.08.2018 07:00:00 - - - - - - -
18.08.2018 06:00:00 - - - - - - -
18.08.2018 05:00:00 - - - - - - -
18.08.2018 04:00:00 - - - - - - -
18.08.2018 03:00:00 - - - - - - -
18.08.2018 02:00:00 - - - - - - -
18.08.2018 01:00:00 - - - - - - -
18.08.2018 00:00:00 - - - - - - -
17.08.2018 23:00:00 - - - - - - -
17.08.2018 22:00:00 - - - - - - -
17.08.2018 21:00:00 - - - - - - -
17.08.2018 20:00:00 29,6 11,2 0 0 N 1011,9 20
17.08.2018 19:00:00 - - - - - - -
17.08.2018 18:00:00 - - - - - - -
17.08.2018 17:00:00 30,6 10,0 5 3 O 1013,3 20
17.08.2018 16:00:00 - - - - - - -
17.08.2018 15:00:00 - - - - - - -
17.08.2018 14:00:00 30,4 12,3 5 3 NNO 1013,6 20
17.08.2018 13:00:00 - - - - - - -
17.08.2018 12:00:00 - - - - - - -
17.08.2018 11:00:00 26,0 12,5 0 0 N 1014,3 20
17.08.2018 10:00:00 - - - - - - -
17.08.2018 09:00:00 - - - - - - -
17.08.2018 08:00:00 15,6 13,8 0 0 N 1015,3 20
17.08.2018 07:00:00 - - - - - - -
17.08.2018 06:00:00 - - - - - - -
17.08.2018 05:00:00 - - - - - - -
17.08.2018 04:00:00 - - - - - - -
17.08.2018 03:00:00 - - - - - - -
17.08.2018 02:00:00 - - - - - - -
17.08.2018 01:00:00 - - - - - - -
17.08.2018 00:00:00 - - - - - - -
16.08.2018 23:00:00 - - - - - - -
16.08.2018 22:00:00 - - - - - - -
16.08.2018 21:00:00 - - - - - - -
16.08.2018 20:00:00 26,6 13,0 11 6 NO 1012,8 20
16.08.2018 19:00:00 - - - - - - -
16.08.2018 18:00:00 - - - - - - -
16.08.2018 17:00:00 29,6 13,8 13 7 NNO 1012,6 20
16.08.2018 16:00:00 - - - - - - -
16.08.2018 15:00:00 - - - - - - -
16.08.2018 14:00:00 30,4 12,8 13 7 NO 1013,6 20
16.08.2018 13:00:00 - - - - - - -
16.08.2018 12:00:00 - - - - - - -
16.08.2018 11:00:00 27,2 14,6 13 7 NO 1014,6 20
16.08.2018 10:00:00 - - - - - - -
16.08.2018 09:00:00 - - - - - - -
16.08.2018 08:00:00 20,4 16,0 0 0 N 1015,1 18
16.08.2018 07:00:00 - - - - - - -
16.08.2018 06:00:00 - - - - - - -
16.08.2018 05:00:00 - - - - - - -
16.08.2018 04:00:00 - - - - - - -
16.08.2018 03:00:00 - - - - - - -
16.08.2018 02:00:00 - - - - - - -
16.08.2018 01:00:00 - - - - - - -

tt = temperatuur
td = dauwpunt
ff = windsnelheid
dd = windrichting
ppp = luchtdruk
vv = zicht

Weerstations in de omgeving